Regional Weather Roundup
Issued by NWS State College, PA

Home | Current Version | Previous Version | Graphics & Text | Print | Product List | Glossary Off
Versions: 1 2 3 4 5 6 7 8 9 10 11 12 13 14 15 16 17 18 19 20 21 22 23 24 25 26 27 28 29 30 31 32 33 34 35 36 37 38 39 40 41 42 43 44 45 46 47 48 49 50

000
ASUS41 KCTP 110310
RWRCTP

REGIONAL WEATHER ROUNDUP
NATIONAL WEATHER SERVICE STATE COLLEGE PA
1000 PM EST SUN DEC 10 2017

Note: "fair" indicates few or no clouds below 12,000 feet with no
significant weather and/or obstructions to visibility.

* = STATION THAT DOES NOT REPORT PRECIPITATION /E.G. RAIN...SNOW...ETC/
    THUNDER OR FOG.

PAZ002>004-007>009-013>016-020>023-029>032-110400-
WESTERN PENNSYLVANIA

CITY           SKY/WX    TMP DP  RH WIND       PRES   REMARKS
ERIE           LGT SNOW  28  20  71 SW17      29.93S
MEADVILLE      CLOUDY    25  19  78 SW8       29.92S
FRANKLIN*      FLURRIES  26  16  65 SW9       29.92F
NEW CASTLE     CLOUDY    30  18  60 SW9       29.97S
BEAVER COUNTY  NOT AVBL
BUTLER*        CLOUDY    29  18  63 SW9       29.96S
PITTSBURGH INT CLOUDY    33  18  53 SW8       29.97S
PITTSBURGH     CLOUDY    30  16  56 SW9       29.97S
INDIANA*       CLOUDY    30  19  64 W10       29.99S
LATROBE        MOCLDY    32  19  59 SW12      29.99S
WASHINGTON CO* CLOUDY    31  19  61 SW7       30.01S
$$

PAZ004>006-010>012-017>019-024>028-033>037-041-042-045-046-049>053-110400-
CENTRAL PENNSYLVANIA

CITY           SKY/WX    TMP DP  RH WIND       PRES   REMARKS
BRADFORD       CLOUDY    24  18  77 MISG      29.86F
DUBOIS         CLOUDY    26  17  68 W10       29.90F
CLEARFIELD     CLOUDY    28  19  69 SW12      29.93S
JOHNSTOWN      CLOUDY    27  18  69 SW13      29.90S
ALTOONA        CLOUDY    31  19  61 SW9       29.96S
STATE COLLEGE  CLOUDY    30  18  59 SW9       29.96S
WILLIAMSPORT   MOCLDY    34  19  54 W3        29.97S
SELINSGROVE    CLOUDY    32  19  58 CALM      30.00S
FT INDIANTOWN  CLOUDY    31  21  66 CALM      30.00S
CAPITAL CITY   CLOUDY    36  18  48 SW7       30.02R
HARRISBURG     CLOUDY    36  20  52 SW9       30.01S
YORK           CLOUDY    35  20  54 W7        30.01F
$$

PAZ038>040-043-044-047-048-054-055-060>062-067>071-110400-
EASTERN PENNSYLVANIA

CITY           SKY/WX    TMP DP  RH WIND       PRES   REMARKS
SCRANTON       CLOUDY    31  19  61 SW8       29.94S
MOUNT POCONO   CLOUDY    25  17  72 SW8       29.89S
ALLENTOWN      CLOUDY    32  21  64 SW6       30.00S
QUAKERTOWN*    CLOUDY    32  19  59 SW7       30.01S
READING        CLOUDY    33  24  69 SW6       30.00S
LANCASTER      FLURRIES  34  22  61 SW8       30.02S
COATESVILLE    MOCLDY    32  21  64 CALM      30.02S
POTTSTOWN      CLOUDY    33  20  58 SW6       30.03S
BLUE BELL      CLOUDY    32  23  69 CALM      30.05R
DOYLESTOWN     CLOUDY    32  21  64 SW7       30.01S
WILLOW GROVE   NOT AVBL
NORTH PHILA    PTCLDY    38  22  52 SW10      30.05S
PHILADELPHIA   CLOUDY    36  25  64 S9        30.05S
$$



USA.gov is the U.S. government's official web portal to all federal, state and local government web resources and services.